Domov               UVHVVR             MKGP            O straneh              
ZDRAVSTVENO VARSTVO RASTLIN
  MREŽA AGROMET. POSTAJ
 ► PROGNOSTIČNA OBVESTILA
AGROMETEOROLOŠKI PODATKI -
ARSO
OBVLADOVANJE TVEGANJ ZARADI
NEUGODNIH VREMENSKIH RAZMER
  ► NARAVNE NESREČE
  ► SUŠA/MOČA
  ► NAMAKANJE
  ► ŽLED (gozdarstvo)
KARTOGRAFSKI PRIKAZI
SPLETNE POVEZAVE
PROJEKTI IN PUBLIKACIJE

AGROMETEOROLOŠKA MREŽA: VREMENSKE POSTAJE IN FENOLOŠKA OPAZOVANJA

Pregled podatkov za lokacijo Potoče, meteorološka postaja 861648

Pregled senzorjev na lokaciji

ID Ime Zadnja
vrednost
Datum
zadnje
spremembe
Tip
senzorja
4072 Omočenost lista (U) 0 U 19.2.2018 14:30 A730WET
4073 Padavine (mm) 0 mm 19.2.2018 14:30 Rain-O-Matic
4071 Relativna vlaga 2 m (% RH) 61,25 % RH 19.2.2018 14:30 50YA
4070 Temperatura 2 m (°C) 4,21 °C 19.2.2018 14:30 50YA

Pregled podatkov zadnjih 24 ur

Zap.
št.
Datum in čas Potoče
Omočenost
lista
Padavine Relativna
vlaga
2
m
Temperatura
2
m
1 19.2.2018 15:00
2 19.2.2018 14:30 0 0 61,2 4,2
3 19.2.2018 14:00 0 0 61,2 4,2
4 19.2.2018 13:30 0 0 62,5 4,1
5 19.2.2018 13:00 0 0 63,2 3,9
6 19.2.2018 12:30 0 0 63 3,8
7 19.2.2018 12:00 0 0 63,7 3,7
8 19.2.2018 11:30 0 0 65,3 3,5
9 19.2.2018 11:00 0 0 65,5 3,2
10 19.2.2018 10:30 0 0 65,3 3,2
11 19.2.2018 10:00 0 0 64,5 3,5
12 19.2.2018 09:30 0 0 63,4 3,5
13 19.2.2018 09:00 0 0 64,3 3,1
14 19.2.2018 08:30 0 0 66,5 2,7
15 19.2.2018 08:00 0 0 65,4 2,7
16 19.2.2018 07:30 0 0 64,2 2,9
17 19.2.2018 07:00 0 0 64,7 3
18 19.2.2018 06:30 0 0 65,1 3,1
19 19.2.2018 06:00 0 0 64,9 3,2
20 19.2.2018 05:30 0 0 66,2 3,2
21 19.2.2018 05:00 0 0 66,8 3,2
22 19.2.2018 04:30 0 0 66,9 3,3
23 19.2.2018 04:00 0 0 67,9 3,2
24 19.2.2018 03:30 0 0 68,4 3,2
25 19.2.2018 03:00 0 0 68,9 3,2
26 19.2.2018 02:30 0 0 67,9 3,3
27 19.2.2018 02:00 0 0 65,8 3,6
28 19.2.2018 01:30 0 0 65,5 3,7
29 19.2.2018 01:00 0 0 64,7 3,9
30 19.2.2018 00:30 0 0 64,8 4
31 19.2.2018 00:00 0 0 65,3 4
32 18.2.2018 23:30 0 0 65 4,2
33 18.2.2018 23:00 0 0 64,4 4,3
34 18.2.2018 22:30 0 0 64,9 4,3
35 18.2.2018 22:00 0 0 66,9 4,2
36 18.2.2018 21:30 0 0 66,6 4,3
37 18.2.2018 21:00 0 0 66,5 4,3
38 18.2.2018 20:30 0 0 65,8 4,5
39 18.2.2018 20:00 0 0 66,3 4,7
40 18.2.2018 19:30 0 0 66,6 4,8
41 18.2.2018 19:00 0 0 65,5 4,9
42 18.2.2018 18:30 0 0 66,6 4,8
43 18.2.2018 18:00 0 0 66,7 4,9
44 18.2.2018 17:30 0 0 67 5
45 18.2.2018 17:00 0 0 66,8 5,1
46 18.2.2018 16:30 0 0 66,2 5,2
47 18.2.2018 16:00 0 0 65,4 5,3
48 18.2.2018 15:30 0 0 66,5 5,3
© 2011 Ministrstvo za kmetijstvo, gozdarstvo in prehrano. Vse pravice pridržane.